INMARSAT 4-F3

Last updated on Wed Jul 02 2025 00:02:44 GMT+0000 (Coordinated Universal Time)

1 33278U 08039A 25182.36641924 -.00000139 00000+0 00000+0 0 9998 2 33278 3.9997 29.9890 0002542 77.8188 205.7647 1.00271344 43023
UTC large
Height (km)
Speed (km/s)
/
Latitude / Longitude
Inclination (degrees)
Orbital Period (minutes)
Azimuth
Elevation
Range (km)
Doppler Factor

Next 0 passes for location: London (51.5072 / 0.1276)

Sorry there are no passes over London.